Content
SEND FEEDBACK

Daily
Averages
Monthly
Summary
United States of America

EL PASO, TEXAS


Home > North America > United States > Texas
Elevation: 3918 feet     Latitude: 31 48N     Longitude: 106 24W

WEATHER
 
SELECT A DAY
Number of Records: 171,846;   Date Range: 1/1/95 - 7/22/14
 
SHARE

PRINT THIS DATA

[ ← Previous Day ]
WEATHER ALMANAC - SEPTEMBER 7, 2013
[ Next Day → ]
[ °C ]   °F
Weather ElementAverageHighLow
Temperature83.7 °F91.9 °F (2:51 pm)75 °F (5:51 am)
Dewpoint51 °F55 °F (9:51 am)45 °F (8:51 pm)
Humidity33.2 %48 % (5:51 am)24 % (1:51 pm)
Barometer29.83 in29.91 in (8:51 am)29.75 in (4:51 pm)
Wind Speed6.8 mph13.8 mph (11:51 pm)
Wind Gust20.7 mph (12:51 pm)
Weather ElementAverage
Visibility10 mi
Wind DirectionENE (78.3 °)

Weather ElementTotal
Precipitation---
Cooling Degree Days18.5 (Base 65)
Growing Degree Days33.5 (Base 50)
Averaged from 23 records on September 7, 2013
WEATHER CONDITIONS BREAKOUT
WIND DIRECTION BREAKOUT
WEATHER BY HOUR - SEPTEMBER 7, 2013
[ °C ]   °F
Local TimeTemperatureDewpointHumidityBarometerVisibilityWind DirectionWind SpeedGust SpeedPrecipitationEventsConditions
1:51 AM80.1 °F53.1 °F39 %29.85 in10.0 miESE (120°)10.4 mphMostly Cloudy
2:51 AM79.0 °F53.1 °F40 %29.86 in10.0 miESE (110°)5.8 mphMostly Cloudy
3:51 AM77.0 °F53.1 °F43 %29.86 in10.0 miESE (110°)3.5 mphMostly Cloudy
4:51 AM77.0 °F53.1 °F43 %29.86 in10.0 miCalmScattered Clouds
5:51 AM75.0 °F54.0 °F48 %29.87 in10.0 miCalmScattered Clouds
6:51 AM75.0 °F54.0 °F48 %29.88 in10.0 miCalmScattered Clouds
7:51 AM77.0 °F54.0 °F45 %29.90 in10.0 miNE (40°)3.5 mphScattered Clouds
8:51 AM78.1 °F54.0 °F43 %29.91 in10.0 miENE (70°)4.6 mphScattered Clouds
9:51 AM82.0 °F55.0 °F39 %29.90 in10.0 miCalmScattered Clouds
10:51 AM86.0 °F48.9 °F28 %29.89 in10.0 miEast (100°)9.2 mphScattered Clouds
11:51 AM88.0 °F48.9 °F26 %29.88 in10.0 miEast (80°)8.1 mph16.1 mphScattered Clouds
12:51 PM90.0 °F50.0 °F25 %29.85 in10.0 miNE (40°)10.4 mph20.7 mphScattered Clouds
1:51 PM91.0 °F50.0 °F24 %29.82 in10.0 miESE (120°)11.5 mph19.6 mphScattered Clouds
2:51 PM91.9 °F50.0 °F24 %29.79 in10.0 miSE (130°)12.7 mph18.4 mphScattered Clouds
3:51 PM90.0 °F50.0 °F25 %29.77 in10.0 miEast (100°)9.2 mphScattered Clouds
4:51 PM90.0 °F51.1 °F26 %29.75 in10.0 miESE (120°)6.9 mphScattered Clouds
5:51 PM90.0 °F50.0 °F25 %29.75 in10.0 miEast (100°)9.2 mphScattered Clouds
6:51 PM89.1 °F48.9 °F25 %29.75 in10.0 miEast (100°)5.8 mphScattered Clouds
7:51 PM87.1 °F46.0 °F24 %29.77 in10.0 miEast (80°)8.1 mphScattered Clouds
8:51 PM84.9 °F45.0 °F25 %29.79 in10.0 miEast (80°)5.8 mphScattered Clouds
9:51 PM82.0 °F46.9 °F29 %29.81 in10.0 miEast (100°)4.6 mphPartly Cloudy
10:51 PM82.9 °F52.0 °F34 %29.80 in10.0 miEast (100°)12.7 mphScattered Clouds
11:51 PM82.0 °F52.0 °F35 %29.80 in10.0 miEast (100°)13.8 mph19.6 mphScattered Clouds
Hourly data recorded from KELP, located miles away from El Paso, Texas







STORIES FROM OUR PARTNERS